CW1631 Weather Reports


time (UTC)temp
C
wind
direction
speed
KPH
gust
KPH
rain 1hr
cm
rain 24hr
cm
rain mn
cm
humidity
%
barometer
mb
20260505094354 13 291 1.6 1.6 0.00 0.00 0.00 67 1006.1
20260505093849 13 279 1.6 1.6 0.00 0.00 0.00 67 1006.2
20260505093347 13 253 0.0 1.6 0.00 0.00 0.00 67 1006.1
20260505092844 13 277 1.6 1.6 0.00 0.00 0.00 67 1006.0
20260505092342 13 246 1.6 1.6 0.00 0.00 0.00 67 1006.1
20260505091839 13 276 1.6 1.6 0.00 0.00 0.00 66 1006.2
20260505091337 13 260 0.0 0.0 0.00 0.00 0.00 65 1005.8
20260505090835 13 269 3.2 4.8 0.00 0.00 0.00 65 1005.9
20260505090333 13 314 1.6 1.6 0.00 0.00 0.00 65 1006.1
20260505085830 14 297 1.6 1.6 0.00 0.00 0.00 65 1005.9
20260505085328 14 273 1.6 1.6 0.00 0.00 0.00 65 1005.8
20260505084825 13 284 1.6 1.6 0.00 0.00 0.00 65 1006.0
20260505084324 13 312 1.6 3.2 0.00 0.00 0.00 65 1005.8
20260505083820 14 302 0.0 0.0 0.00 0.00 0.00 64 1005.8
20260505083318 15 303 1.6 1.6 0.00 0.00 0.00 62 1005.8
20260505082814 15 268 3.2 3.2 0.00 0.00 0.00 62 1005.9
20260505082311 15 300 0.0 1.6 0.00 0.00 0.00 62 1006.1
20260505081807 15 222 1.6 1.6 0.00 0.00 0.00 61 1006.1
20260505081304 15 215 1.6 1.6 0.00 0.00 0.00 61 1005.8
20260505080801 15 265 1.6 1.6 0.00 0.00 0.00 60 1006.1
20260505080256 15 233 4.8 8.0 0.00 0.00 0.00 59 1005.9
20260505075752 15 239 1.6 1.6 0.00 0.00 0.00 59 1005.9
20260505075249 15 247 1.6 1.6 0.00 0.00 0.00 60 1006.1
20260505074747 15 237 1.6 3.2 0.00 0.00 0.00 59 1006.0
20260505074244 15 267 1.6 1.6 0.00 0.00 0.00 59 1006.1
20260505073741 15 266 4.8 4.8 0.00 0.00 0.00 59 1005.9
20260505073239 15 307 1.6 1.6 0.00 0.00 0.00 58 1006.0
20260505072735 15 270 3.2 3.2 0.00 0.00 0.00 58 1006.2
20260505072232 15 241 4.8 4.8 0.00 0.00 0.00 59 1006.2
20260505071727 15 269 1.6 1.6 0.00 0.00 0.00 58 1006.2
20260505071225 15 279 1.6 3.2 0.00 0.00 0.00 59 1006.3
20260505070722 15 284 1.6 1.6 0.00 0.00 0.00 58 1006.3
20260505070218 15 295 1.6 1.6 0.00 0.00 0.00 57 1006.2
20260505065714 15 270 0.0 0.0 0.00 0.00 0.00 58 1006.1
20260505065211 15 281 1.6 1.6 0.00 0.00 0.00 58 1006.2
20260505064708 15 269 1.6 1.6 0.00 0.00 0.00 56 1006.1
20260505064206 16 260 1.6 1.6 0.00 0.00 0.00 55 1006.0
20260505063703 16 232 4.8 4.8 0.00 0.00 0.00 55 1006.0
20260505063159 16 233 4.8 4.8 0.00 0.00 0.00 55 1006.1
20260505062655 16 230 11.3 14.5 0.00 0.00 0.00 55 1006.2
20260505062154 16 252 8.0 9.7 0.00 0.00 0.00 54 1006.1
20260505061650 16 217 11.3 12.9 0.00 0.00 0.00 54 1006.2
20260505061148 16 230 6.4 8.0 0.00 0.00 0.00 54 1006.2
20260505060645 16 209 11.3 11.3 0.00 0.00 0.00 54 1006.2
20260505060142 16 217 6.4 8.0 0.00 0.00 0.00 55 1006.2
20260505055637 16 214 14.5 16.1 0.00 0.00 0.00 54 1006.3
20260505055134 16 224 6.4 8.0 0.00 0.00 0.00 54 1006.1
20260505054632 16 229 3.2 4.8 0.00 0.00 0.00 54 1006.1
20260505054130 16 221 4.8 4.8 0.00 0.00 0.00 54 1006.2
20260505053627 16 223 9.7 11.3 0.00 0.00 0.00 55 1006.2
20260505053123 16 245 6.4 8.0 0.00 0.00 0.00 54 1006.1
20260505052620 15 196 4.8 4.8 0.00 0.00 0.00 55 1006.3
20260505052118 16 249 1.6 1.6 0.00 0.00 0.00 54 1006.2
20260505051614 16 250 0.0 0.0 0.00 0.00 0.00 53 1006.3
20260505051112 16 201 9.7 9.7 0.00 0.00 0.00 52 1006.4
20260505050610 16 226 4.8 4.8 0.00 0.00 0.00 53 1006.5
20260505050108 16 225 8.0 9.7 0.00 0.00 0.00 53 1006.5
20260505041538 17 217 4.8 4.8 0.00 0.00 0.00 50 1006.3
20260505041035 17 231 4.8 4.8 0.00 0.00 0.00 50 1006.1
20260505040532 17 208 16.1 16.1 0.00 0.00 0.00 49 1006.1
20260505040030 17 216 6.4 9.7 0.00 0.00 0.00 49 1006.1
20260505035525 17 201 12.9 14.5 0.00 0.00 0.00 48 1006.3
20260505035022 17 196 14.5 14.5 0.00 0.00 0.00 48 1006.4
20260505034519 17 207 11.3 12.9 0.00 0.00 0.00 48 1006.0
20260505034016 18 221 9.7 11.3 0.00 0.00 0.00 48 1006.1
20260505033513 17 249 16.1 20.9 0.00 0.00 0.00 48 1006.2
20260505033011 17 211 11.3 14.5 0.00 0.00 0.00 48 1006.0
20260505032508 18 190 14.5 16.1 0.00 0.00 0.00 48 1006.1
20260505032004 18 204 17.7 22.5 0.00 0.00 0.00 47 1006.2
20260505031501 17 200 14.5 16.1 0.00 0.00 0.00 48 1005.9
20260505030958 18 216 12.9 14.5 0.00 0.00 0.00 47 1006.3
20260505030455 18 228 11.3 12.9 0.00 0.00 0.00 47 1006.1
20260505025950 18 199 14.5 20.9 0.00 0.00 0.00 46 1006.1
20260505025447 18 204 11.3 12.9 0.00 0.00 0.00 47 1006.1
20260505024946 18 187 17.7 17.7 0.00 0.00 0.00 46 1006.1
20260505024443 18 190 11.3 12.9 0.00 0.00 0.00 46 1006.3
20260505023940 18 211 8.0 9.7 0.00 0.00 0.00 45 1006.3
20260505023437 18 219 8.0 9.7 0.00 0.00 0.00 45 1006.3
20260505022934 18 204 12.9 14.5 0.00 0.00 0.00 45 1006.3
20260505022432 18 226 12.9 16.1 0.00 0.00 0.00 45 1006.3
20260505021929 18 192 9.7 12.9 0.00 0.00 0.00 44 1006.4
20260505021425 18 232 8.0 9.7 0.00 0.00 0.00 45 1006.4
20260505020921 18 215 11.3 12.9 0.00 0.00 0.00 44 1006.4
20260505020416 18 198 6.4 8.0 0.00 0.00 0.00 44 1006.4
20260505015913 18 229 4.8 8.0 0.00 0.00 0.00 45 1006.5
20260505015411 19 209 9.7 14.5 0.00 0.00 0.00 43 1006.1
20260505014908 18 198 16.1 17.7 0.00 0.00 0.00 43 1006.6
20260505014405 19 221 14.5 16.1 0.00 0.00 0.00 43 1006.3
20260505013902 19 213 17.7 20.9 0.00 0.00 0.00 43 1006.1
20260505013358 18 219 14.5 17.7 0.00 0.00 0.00 43 1006.1
20260505012857 19 215 8.0 9.7 0.00 0.00 0.00 44 1006.2
20260505012354 19 215 14.5 17.7 0.00 0.00 0.00 43 1006.0
20260505011850 19 234 14.5 16.1 0.00 0.00 0.00 43 1006.3
20260505011347 19 209 19.3 20.9 0.00 0.00 0.00 42 1006.4
20260505010843 19 238 12.9 14.5 0.00 0.00 0.00 43 1005.8
20260505010339 19 219 12.9 16.1 0.00 0.00 0.00 42 1006.0
20260505005836 19 215 8.0 9.7 0.00 0.00 0.00 43 1005.8
20260505005332 20 206 11.3 14.5 0.00 0.00 0.00 42 1005.9
20260505004830 20 224 8.0 12.9 0.00 0.00 0.00 42 1005.8
20260505004326 20 194 12.9 14.5 0.00 0.00 0.00 41 1005.7
20260505003824 20 214 11.3 12.9 0.00 0.00 0.00 41 1005.7
20260505003321 20 200 6.4 9.7 0.00 0.00 0.00 41 1005.5
20260505002817 20 207 8.0 11.3 0.00 0.00 0.00 41 1005.4
20260505002314 20 215 14.5 17.7 0.00 0.00 0.00 40 1005.7
20260505001812 20 214 11.3 16.1 0.00 0.00 0.00 40 1005.7
20260505001309 20 200 11.3 12.9 0.00 0.00 0.00 40 1005.6
20260505000806 20 187 11.3 17.7 0.00 0.00 0.00 40 1005.7
20260505000304 20 200 14.5 16.1 0.00 0.00 0.00 39 1005.6
20260504235800 20 217 9.7 11.3 0.00 0.00 0.00 39 1005.6
20260504235256 20 213 11.3 12.9 0.00 0.00 0.00 39 1005.2
20260504234754 21 219 12.9 14.5 0.00 0.00 0.00 40 1005.4
20260504234251 21 212 16.1 20.9 0.00 0.00 0.00 38 1005.2
20260504233747 21 218 8.0 11.3 0.00 0.00 0.00 39 1005.0
20260504233243 21 207 9.7 11.3 0.00 0.00 0.00 39 1004.9
20260504232740 21 212 16.1 17.7 0.00 0.00 0.00 38 1005.0
20260504232237 21 225 11.3 12.9 0.00 0.00 0.00 39 1005.0
20260504231734 21 224 11.3 16.1 0.00 0.00 0.00 39 1005.1
20260504231231 21 218 12.9 17.7 0.00 0.00 0.00 39 1005.0
20260504230726 21 225 14.5 16.1 0.00 0.00 0.00 38 1005.0
20260504230225 21 214 14.5 16.1 0.00 0.00 0.00 37 1005.1
20260504225724 21 228 19.3 22.5 0.00 0.00 0.00 38 1005.1
20260504225220 21 218 17.7 22.5 0.00 0.00 0.00 37 1005.2
20260504224717 21 231 12.9 16.1 0.00 0.00 0.00 37 1005.0
20260504224214 21 212 19.3 22.5 0.00 0.00 0.00 38 1005.0
20260504223710 21 197 14.5 16.1 0.00 0.00 0.00 39 1005.1
20260504223206 21 246 14.5 22.5 0.00 0.00 0.00 39 1005.0
20260504222703 21 238 9.7 12.9 0.00 0.00 0.00 38 1005.0
20260504222200 21 224 9.7 11.3 0.00 0.00 0.00 38 1005.0
20260504221657 21 218 11.3 12.9 0.00 0.00 0.00 36 1004.9
20260504221155 21 242 12.9 16.1 0.00 0.00 0.00 38 1005.1
20260504220650 21 189 16.1 20.9 0.00 0.00 0.00 38 1004.9
20260504220149 21 258 11.3 12.9 0.00 0.00 0.00 39 1005.1
20260504215644 21 211 16.1 17.7 0.00 0.00 0.00 38 1004.8
20260504215142 22 208 17.7 17.7 0.00 0.00 0.00 37 1004.9
20260504214637 22 230 14.5 16.1 0.00 0.00 0.00 37 1005.1
20260504214134 21 220 11.3 12.9 0.00 0.00 0.00 38 1005.0
20260504213631 21 221 14.5 17.7 0.00 0.00 0.00 38 1005.0
20260504213128 22 230 16.1 20.9 0.00 0.00 0.00 37 1005.0
20260504212624 22 214 9.7 14.5 0.00 0.00 0.00 36 1005.1
20260504212121 22 214 19.3 24.1 0.00 0.00 0.00 36 1005.4
20260504211619 22 206 17.7 17.7 0.00 0.00 0.00 36 1005.2
20260504211115 22 211 9.7 11.3 0.00 0.00 0.00 35 1005.1
20260504210613 22 215 16.1 20.9 0.00 0.00 0.00 36 1005.5
20260504210109 22 235 9.7 14.5 0.00 0.00 0.00 36 1005.2
20260504205606 22 217 9.7 11.3 0.00 0.00 0.00 36 1005.4
20260504205104 22 264 6.4 9.7 0.00 0.00 0.00 35 1005.5
20260504204602 22 227 8.0 16.1 0.00 0.00 0.00 35 1005.5
20260504204101 22 210 25.7 29.0 0.00 0.00 0.00 37 1005.7
20260504203559 22 198 8.0 9.7 0.00 0.00 0.00 37 1005.4
20260504203056 22 214 22.5 33.8 0.00 0.00 0.00 38 1005.6
20260504202551 21 272 9.7 14.5 0.00 0.00 0.00 37 1005.6
20260504202048 21 206 17.7 17.7 0.00 0.00 0.00 37 1005.5
20260504201545 21 215 17.7 25.7 0.00 0.00 0.00 39 1005.8
20260504201043 21 223 17.7 17.7 0.00 0.00 0.00 37 1006.0
20260504200539 21 212 14.5 17.7 0.00 0.00 0.00 39 1005.8
20260504200036 21 230 11.3 11.3 0.00 0.00 0.00 39 1006.0
20260504195532 21 203 11.3 12.9 0.00 0.00 0.00 38 1006.1
20260504195029 21 236 3.2 3.2 0.00 0.00 0.00 37 1006.1
20260504194525 21 216 20.9 27.4 0.00 0.00 0.00 38 1006.3
20260504194021 21 217 24.1 29.0 0.00 0.00 0.00 36 1006.3
20260504193518 21 250 11.3 16.1 0.00 0.00 0.00 37 1006.2
20260504193017 21 218 1.6 3.2 0.00 0.00 0.00 38 1006.4
20260504192514 21 224 25.7 32.2 0.00 0.00 0.00 40 1006.2
20260504192012 21 199 17.7 17.7 0.00 0.00 0.00 39 1006.4
20260504191510 21 278 8.0 11.3 0.00 0.00 0.00 37 1006.6
20260504191006 21 224 24.1 35.4 0.00 0.00 0.00 38 1006.4
20260504190502 21 144 4.8 4.8 0.00 0.00 0.00 38 1006.6
20260504185958 21 255 4.8 4.8 0.00 0.00 0.00 39 1006.5
20260504185455 21 283 4.8 8.0 0.00 0.00 0.00 38 1006.7
20260504184952 21 222 24.1 29.0 0.00 0.00 0.00 38 1006.6
20260504184447 21 227 6.4 14.5 0.00 0.00 0.00 40 1006.6
20260504183943 21 230 19.3 24.1 0.00 0.00 0.00 39 1006.9
20260504183440 20 235 11.3 17.7 0.00 0.00 0.00 41 1006.7
20260504182938 20 221 11.3 14.5 0.00 0.00 0.00 41 1006.8
20260504182435 20 265 8.0 9.7 0.00 0.00 0.00 42 1006.8
20260504181932 20 205 17.7 20.9 0.00 0.00 0.00 43 1006.9
20260504181429 20 230 19.3 25.7 0.00 0.00 0.00 41 1007.0
20260504180928 20 231 8.0 14.5 0.00 0.00 0.00 39 1007.0
20260504180426 21 248 12.9 16.1 0.00 0.00 0.00 41 1007.1
20260504175924 20 228 9.7 17.7 0.00 0.00 0.00 39 1007.1
20260504175421 20 257 6.4 9.7 0.00 0.00 0.00 41 1006.9
20260504174918 20 277 19.3 24.1 0.00 0.00 0.00 44 1007.2
20260504174416 20 163 22.5 24.1 0.00 0.00 0.00 41 1007.4
20260504173913 20 239 24.1 29.0 0.00 0.00 0.00 40 1007.2
20260504173409 20 224 14.5 16.1 0.00 0.00 0.00 43 1007.2
20260504172907 19 227 30.6 33.8 0.00 0.00 0.00 43 1007.1
20260504172403 19 219 25.7 33.8 0.00 0.00 0.00 42 1007.3
20260504171859 20 230 12.9 22.5 0.00 0.00 0.00 45 1007.5
20260504171356 19 231 12.9 20.9 0.00 0.00 0.00 43 1007.3
20260504170854 19 218 32.2 37.0 0.00 0.00 0.00 43 1007.5
20260504170350 18 213 19.3 27.4 0.00 0.00 0.00 41 1007.6
20260504160309 17 203 14.5 16.1 0.00 0.00 0.00 45 1008.1
20260504150734 16 220 20.9 27.4 0.00 0.00 0.00 46 1008.7
20260504150230 16 277 22.5 27.4 0.00 0.00 0.00 45 1008.7
20260504141200 13 242 11.3 17.7 0.00 0.00 0.00 49 1009.4
20260504140657 14 206 29.0 33.8 0.00 0.00 0.00 46 1009.4
20260504140152 13 221 20.9 22.5 0.00 0.00 0.00 46 1009.6
20260504130620 11 217 14.5 16.1 0.00 0.00 0.00 51 1010.0
20260504130117 11 198 17.7 17.7 0.00 0.00 0.00 50 1009.9
20260504110509 7 249 3.2 3.2 0.00 0.00 0.00 66 1010.3
20260504100431 6 236 3.2 3.2 0.00 0.00 0.00 65 1010.2